Cape Girardeau, MO

11:11 AM CDT on October 20, 2019 (GMT -0500)
Cape Girardeau Regional

Weather History for KCGI - September, 2019

Change the Weather History Date:

Wednesday, September 18, 2019

  Actual Average Record
Temperature  
Mean Temperature 80 °F 68 °F  
Max Temperature 94 °F 80 °F 94 °F (2018)
Min Temperature 66 °F 55 °F 43 °F (1981)
Degree Days  
Heating Degree Days 0 2  
Month to date heating degree days 0 9  
Since 1 July heating degree days 0 10  
Cooling Degree Days 15 5  
Month to date cooling degree days 227 124  
Year to date cooling degree days 1602 1384  
Growing Degree Days 30 (Base 50)    
Moisture  
Dew Point 66 °F    
Average Humidity 67    
Maximum Humidity 93    
Minimum Humidity 41    
Precipitation  
Precipitation 0.00 in 0.10 in 0.89 in (1970)
Month to date precipitation T 2.00  
Year to date precipitation 45.01 33.05  
Sea Level Pressure  
Sea Level Pressure 30.01 in    
Wind  
Wind Speed 3 mph (East)    
Max Wind Speed 13 mph    
Max Gust Speed 16 mph    
Visibility 10 miles    
Events      
T = Trace of Precipitation, MM = Missing Value Source: NWS Daily Summary

Daily Weather History Graph

Daily Weather History Graph

Search for Another Location

Airport or City:

Astronomy

Sep. 18, 2019 Rise Set
Actual Time 6:42 AM CDT 7:01 PM CDT
Civil Twilight 6:16 AM CDT 7:27 PM CDT
Nautical Twilight 5:46 AM CDT 7:58 PM CDT
Astronomical Twilight 5:14 AM CDT 8:29 PM CDT
Moon 9:41 PM CDT (9/18) 10:40 AM CDT (9/18)
Length of Visible Light 13h 11m
Length of Day
12h 19m
Waning Gibbous, 82% of the Moon is Illuminated
Sep 18
Waning Gibbous
Sep 21
Last Quarter
Sep 28
New
Oct 5
First Quarter
Oct 13
Full

Hourly Weather History & Observations

Time (CDT) Temp. Heat Index Dew Point Humidity Pressure Visibility Wind Dir Wind Speed Gust Speed Precip Events Conditions
12:53 AM 73.9 °F - 66.9 °F 79% 30.00 in 10.0 mi East 4.6 mph - N/A   Clear
1:53 AM 72.0 °F - 66.9 °F 84% 30.01 in 10.0 mi Calm Calm - N/A   Clear
2:53 AM 71.1 °F - 66.0 °F 84% 30.00 in 10.0 mi Calm Calm - N/A   Clear
3:53 AM 68.0 °F - 64.9 °F 90% 30.00 in 9.0 mi Calm Calm - N/A   Clear
4:53 AM 68.0 °F - 64.9 °F 90% 30.00 in 8.0 mi Calm Calm - N/A   Clear
5:53 AM 66.0 °F - 64.0 °F 93% 30.01 in 7.0 mi Calm Calm - N/A   Clear
6:53 AM 66.0 °F - 64.0 °F 93% 30.02 in 5.0 mi Calm Calm - N/A   Clear
7:53 AM 73.0 °F - 66.9 °F 81% 30.04 in 10.0 mi ENE 3.5 mph - N/A   Clear
8:53 AM 77.0 °F - 66.0 °F 69% 30.03 in 10.0 mi ENE 5.8 mph - N/A   Clear
9:53 AM 81.0 °F 82.7 °F 64.9 °F 58% 30.03 in 10.0 mi East 4.6 mph - N/A   Clear
10:53 AM 84.9 °F 87.1 °F 66.0 °F 53% 30.03 in 10.0 mi Calm Calm - N/A   Clear
11:53 AM 88.0 °F 90.3 °F 66.0 °F 48% 30.03 in 10.0 mi Calm Calm - N/A   Clear
12:53 PM 90.0 °F 91.3 °F 64.0 °F 42% 30.03 in 10.0 mi East 5.8 mph - N/A   Clear
1:53 PM 91.9 °F 94.5 °F 66.0 °F 42% 30.01 in 10.0 mi East 6.9 mph - N/A   Clear
2:53 PM 91.9 °F 95.4 °F 66.9 °F 44% 29.99 in 10.0 mi East 8.1 mph - N/A   Clear
3:53 PM 93.0 °F 96.4 °F 66.9 °F 42% 29.98 in 10.0 mi East 8.1 mph - N/A   Clear
4:53 PM 91.9 °F 95.4 °F 66.9 °F 44% 29.97 in 10.0 mi NE 8.1 mph - N/A   Clear
5:53 PM 90.0 °F 92.4 °F 66.0 °F 45% 29.97 in 10.0 mi NE 8.1 mph - N/A   Clear
6:53 PM 82.9 °F 85.8 °F 68.0 °F 60% 29.97 in 10.0 mi East 5.8 mph - N/A   Clear
8:53 PM 73.0 °F - 68.0 °F 84% 30.00 in 10.0 mi Calm Calm - N/A   Clear
9:53 PM 71.1 °F - 68.0 °F 90% 30.01 in 10.0 mi Calm Calm - N/A   Clear
10:53 PM 70.0 °F - 66.9 °F 90% 30.01 in 9.0 mi ESE 3.5 mph - N/A   Clear
11:53 PM 71.1 °F - 66.9 °F 87% 30.00 in 10.0 mi East 3.5 mph - N/A   Clear